Pagrindinis puslapis
METAR-TAF:

METAR-TAF

Oro uostai :

North Perry Airport

Hollywood, Florida, Jungtinės Amerikos Valstijos

platuma: 25-59-56N, ilguma: 080-14-28W, Aukštis: 2 m

Dabartinis oras

Ataskaita buvo paskelbta 34 minutes, ne 07:53 UTC
Ramus vėjas
Temperatūra 12°C
Drėgmė 82%
Slėgis 1018 hPa
Matomumas: 16.1 km
Giedras dangus

METAR: KHWO 170753Z AUTO 00000KT 10SM CLR 12/09 A3006 RMK AO2 SLP178 T01220089 $

Laikas: 03:27 (08:27 UTC)


TAF: trūkstamas

Orai ataskaitas ir orų prognozės (METAR, TAF).

turimą stotys yra geltonos ir raudonos taškus žemėlapyje.

Perkelti pele per norėdami pamatyti stoties vardą.

Tada spustelėkite, norėdami matyti oro stebėjimo ir prognozės.

Norėdami pakeisti žemėlapį: spustelėkite ant žalios mygtukų su juodo kryžiaus žemyn,; žalią mygtuką su brūkšneliu, jei norite nutolinti; arba žalių rodyklių gretimoms žemėlapius.


METAR-TAF: